Time,TemperatureF,DewpointF,PressureIn,WindDirection,WindDirectionDegrees,WindSpeedMPH,WindSpeedGustMPH,Humidity,HourlyPrecipIn,Conditions,Clouds,dailyrainin,SoftwareType,DateUTC
2013-02-19 00:01:00,34.0,34.0,30.30,North,0,0.0,-999.0,100,0.00,,,-99.99,,2013-02-19 05:01:00,
2013-02-19 00:12:00,32.0,32.0,30.29,North,0,0.0,-999.0,100,0.00,,,-99.99,,2013-02-19 05:12:00,
2013-02-19 00:21:00,32.0,32.0,30.29,North,0,0.0,-999.0,100,0.00,,,-99.99,,2013-02-19 05:21:00,
2013-02-19 00:31:00,34.0,34.0,30.29,North,0,0.0,-999.0,100,0.00,,,-99.99,,2013-02-19 05:31:00,
2013-02-19 00:42:00,32.0,32.0,30.29,North,0,0.0,-999.0,100,0.00,,,-99.99,,2013-02-19 05:42:00,
2013-02-19 00:51:00,34.0,34.0,30.28,North,0,0.0,-999.0,100,0.00,,,-99.99,,2013-02-19 05:51:00,
2013-02-19 01:02:00,34.0,34.0,30.28,North,0,0.0,-999.0,100,0.00,,,-99.99,,2013-02-19 06:02:00,
2013-02-19 01:11:00,32.0,32.0,30.29,North,0,0.0,-999.0,100,0.00,,,-99.99,,2013-02-19 06:11:00,
2013-02-19 01:21:00,32.0,32.0,30.28,North,0,0.0,-999.0,100,0.00,,,-99.99,,2013-02-19 06:21:00,
2013-02-19 01:31:00,34.0,34.0,30.28,North,0,0.0,-999.0,100,0.00,,,-99.99,,2013-02-19 06:31:00,
2013-02-19 01:41:00,34.0,34.0,30.28,North,0,0.0,-999.0,100,0.00,,,-99.99,,2013-02-19 06:41:00,
2013-02-19 01:51:00,34.0,34.0,30.27,North,0,0.0,-999.0,100,0.00,,,-99.99,,2013-02-19 06:51:00,
2013-02-19 02:01:00,34.0,34.0,30.27,North,0,0.0,-999.0,100,0.00,,,-99.99,,2013-02-19 07:01:00,
2013-02-19 02:11:00,34.0,34.0,30.26,North,0,0.0,-999.0,100,0.00,,,-99.99,,2013-02-19 07:11:00,
2013-02-19 02:21:00,34.0,34.0,30.26,North,0,0.0,-999.0,100,0.00,,,-99.99,,2013-02-19 07:21:00,
2013-02-19 02:31:00,34.0,34.0,30.25,North,0,0.0,-999.0,100,0.00,,,-99.99,,2013-02-19 07:31:00,
2013-02-19 02:41:00,34.0,34.0,30.25,North,0,0.0,-999.0,100,0.00,,,-99.99,,2013-02-19 07:41:00,
2013-02-19 02:51:00,34.0,34.0,30.24,North,0,0.0,-999.0,100,0.00,,,-99.99,,2013-02-19 07:51:00,
2013-02-19 03:01:00,34.0,34.0,30.24,North,0,0.0,-999.0,100,0.00,,,-99.99,,2013-02-19 08:01:00,
2013-02-19 03:11:00,34.0,34.0,30.22,North,0,0.0,-999.0,100,0.00,,,-99.99,,2013-02-19 08:11:00,
2013-02-19 03:21:00,34.0,34.0,30.21,North,0,0.0,-999.0,100,0.00,,,-99.99,,2013-02-19 08:21:00,
2013-02-19 03:31:00,36.0,36.0,30.21,North,0,0.0,-999.0,100,0.00,,,-99.99,,2013-02-19 08:31:00,
2013-02-19 03:41:00,36.0,36.0,30.21,North,0,0.0,-999.0,100,0.00,,,-99.99,,2013-02-19 08:41:00,
2013-02-19 03:51:00,34.0,34.0,30.20,North,0,0.0,-999.0,100,0.00,,,-99.99,,2013-02-19 08:51:00,
2013-02-19 04:01:00,34.0,34.0,30.20,North,0,0.0,-999.0,100,0.00,,,-99.99,,2013-02-19 09:01:00,
2013-02-19 04:11:00,34.0,34.0,30.20,West,280,3.0,-999.0,100,0.00,,,-99.99,,2013-02-19 09:11:00,
2013-02-19 04:21:00,34.0,34.0,30.19,North,0,0.0,-999.0,100,0.00,,,-99.99,,2013-02-19 09:21:00,
2013-02-19 04:31:00,34.0,34.0,30.19,North,0,0.0,-999.0,100,0.00,,,-99.99,,2013-02-19 09:31:00,
2013-02-19 04:41:00,34.0,34.0,30.19,North,0,0.0,-999.0,100,0.00,,,-99.99,,2013-02-19 09:41:00,
2013-02-19 04:52:00,34.0,34.0,30.18,North,0,0.0,-999.0,100,0.00,,,-99.99,,2013-02-19 09:52:00,
2013-02-19 05:01:00,34.0,34.0,30.18,North,0,0.0,-999.0,100,0.00,,,-99.99,,2013-02-19 10:01:00,
2013-02-19 05:11:00,36.0,36.0,30.18,North,0,0.0,-999.0,100,0.00,,,-99.99,,2013-02-19 10:11:00,
2013-02-19 05:21:00,36.0,36.0,30.17,North,0,0.0,-999.0,100,0.00,,,-99.99,,2013-02-19 10:21:00,
2013-02-19 05:31:00,36.0,36.0,30.17,North,0,0.0,-999.0,100,0.00,,,-99.99,,2013-02-19 10:31:00,
2013-02-19 05:41:00,36.0,36.0,30.17,North,0,0.0,-999.0,100,0.00,,,-99.99,,2013-02-19 10:41:00,
2013-02-19 05:51:00,36.0,36.0,30.17,North,0,0.0,-999.0,100,0.00,,,-99.99,,2013-02-19 10:51:00,
2013-02-19 06:01:00,36.0,36.0,30.17,North,0,0.0,-999.0,100,0.00,,,-99.99,,2013-02-19 11:01:00,
2013-02-19 06:11:00,37.0,37.0,30.17,North,0,0.0,-999.0,100,0.00,,,-99.99,,2013-02-19 11:11:00,
2013-02-19 06:21:00,37.0,37.0,30.16,North,0,0.0,-999.0,100,0.00,,,-99.99,,2013-02-19 11:21:00,
2013-02-19 06:31:00,37.0,37.0,30.16,North,0,0.0,-999.0,100,0.00,,,-99.99,,2013-02-19 11:31:00,
2013-02-19 06:41:00,37.0,37.0,30.16,North,0,0.0,-999.0,100,0.00,,,-99.99,,2013-02-19 11:41:00,
2013-02-19 06:51:00,37.0,37.0,30.16,North,0,0.0,-999.0,100,0.00,,,-99.99,,2013-02-19 11:51:00,
2013-02-19 07:01:00,37.0,37.0,30.16,North,0,0.0,-999.0,100,0.00,,,-99.99,,2013-02-19 12:01:00,
2013-02-19 07:12:00,37.0,37.0,30.16,North,0,0.0,-999.0,100,0.00,,,0.00,,2013-02-19 12:12:00,
2013-02-19 07:21:00,37.0,37.0,30.15,North,0,0.0,-999.0,100,0.00,,,0.00,,2013-02-19 12:21:00,
2013-02-19 07:32:00,37.0,37.0,30.14,North,0,0.0,-999.0,100,0.00,,,0.00,,2013-02-19 12:32:00,
2013-02-19 07:41:00,37.0,37.0,30.14,North,0,0.0,-999.0,100,0.00,,,0.00,,2013-02-19 12:41:00,
2013-02-19 07:52:00,41.0,41.0,30.14,North,0,0.0,-999.0,100,0.00,,,0.00,,2013-02-19 12:52:00,
2013-02-19 08:01:00,41.0,41.0,30.14,North,0,0.0,-999.0,100,0.00,,,0.00,,2013-02-19 13:01:00,
2013-02-19 08:11:00,45.0,45.0,30.16,North,0,0.0,-999.0,100,0.00,,,-99.99,,2013-02-19 13:11:00,
2013-02-19 08:21:00,50.0,50.0,30.16,North,0,0.0,-999.0,100,0.00,,,-99.99,,2013-02-19 13:21:00,
2013-02-19 08:31:00,52.0,52.0,30.15,North,0,0.0,-999.0,100,0.00,,,-99.99,,2013-02-19 13:31:00,
2013-02-19 08:41:00,52.0,52.0,30.15,North,0,0.0,-999.0,100,0.00,,,-99.99,,2013-02-19 13:41:00,
2013-02-19 08:51:00,54.0,52.0,30.15,North,0,0.0,-999.0,93,0.00,,,-99.99,,2013-02-19 13:51:00,
2013-02-19 09:02:00,54.0,52.0,30.15,North,0,0.0,-999.0,93,0.00,,,-99.99,,2013-02-19 14:02:00,
2013-02-19 09:11:00,55.0,52.0,30.16,North,0,0.0,-999.0,87,0.00,,,-99.99,,2013-02-19 14:11:00,
2013-02-19 09:21:00,57.0,52.0,30.16,SW,220,5.0,-999.0,82,0.00,,,-99.99,,2013-02-19 14:21:00,
2013-02-19 09:32:00,57.0,52.0,30.16,SW,220,6.0,-999.0,82,0.00,,,-99.99,,2013-02-19 14:32:00,
2013-02-19 09:41:00,59.0,52.0,30.15,SW,220,8.0,-999.0,76,0.00,,,-99.99,,2013-02-19 14:41:00,
2013-02-19 09:52:00,61.0,52.0,30.15,SW,230,9.0,-999.0,72,0.00,,,-99.99,,2013-02-19 14:52:00,
2013-02-19 10:01:00,61.0,52.0,30.15,SW,230,9.0,-999.0,72,0.00,,,-99.99,,2013-02-19 15:01:00,
2013-02-19 10:11:00,61.0,52.0,30.14,SW,230,12.0,17.0,72,0.00,,,-99.99,,2013-02-19 15:11:00,
2013-02-19 10:21:00,61.0,52.0,30.14,SW,230,15.0,17.0,72,0.00,,,-99.99,,2013-02-19 15:21:00,
2013-02-19 10:31:00,61.0,50.0,30.14,WSW,240,14.0,-999.0,67,0.00,,,-99.99,,2013-02-19 15:31:00,
2013-02-19 10:41:00,61.0,50.0,30.13,WSW,240,14.0,17.0,67,0.00,,,-99.99,,2013-02-19 15:41:00,
2013-02-19 10:52:00,63.0,50.0,30.12,SW,230,13.0,17.0,63,0.00,,,-99.99,,2013-02-19 15:52:00,
2013-02-19 11:01:00,63.0,50.0,30.12,SW,230,13.0,17.0,63,0.00,,,-99.99,,2013-02-19 16:01:00,
2013-02-19 11:11:00,64.0,48.0,30.11,SW,230,14.0,21.0,55,0.00,,,-99.99,,2013-02-19 16:11:00,
2013-02-19 11:21:00,64.0,48.0,30.11,SW,230,12.0,20.0,55,0.00,,,-99.99,,2013-02-19 16:21:00,
2013-02-19 11:31:00,64.0,48.0,30.10,SW,230,16.0,21.0,55,0.00,,,-99.99,,2013-02-19 16:31:00,
2013-02-19 11:41:00,64.0,48.0,30.09,SW,230,14.0,21.0,55,0.00,,,-99.99,,2013-02-19 16:41:00,
2013-02-19 11:51:00,64.0,48.0,30.10,SW,230,13.0,21.0,55,0.00,,,-99.99,,2013-02-19 16:51:00,
2013-02-19 12:01:00,64.0,48.0,30.10,SW,230,13.0,21.0,55,0.00,,,-99.99,,2013-02-19 17:01:00,
2013-02-19 12:11:00,66.0,48.0,30.09,SW,230,16.0,21.0,52,0.00,,,-99.99,,2013-02-19 17:11:00,
2013-02-19 12:21:00,66.0,48.0,30.08,WSW,240,17.0,25.0,52,0.00,,,-99.99,,2013-02-19 17:21:00,
2013-02-19 12:31:00,64.0,48.0,30.08,SW,230,20.0,27.0,55,0.00,,,-99.99,,2013-02-19 17:31:00,
2013-02-19 12:41:00,63.0,50.0,30.08,WSW,240,17.0,25.0,63,0.00,,,-99.99,,2013-02-19 17:41:00,
2013-02-19 12:51:00,63.0,50.0,30.07,SW,230,16.0,21.0,63,0.00,,,-99.99,,2013-02-19 17:51:00,
2013-02-19 13:01:00,63.0,50.0,30.07,SW,230,16.0,21.0,63,0.00,,,-99.99,,2013-02-19 18:01:00,
2013-02-19 13:11:00,61.0,52.0,30.06,WSW,240,10.0,25.0,72,0.00,,,-99.99,,2013-02-19 18:11:00,
2013-02-19 13:21:00,61.0,52.0,30.06,WSW,250,12.0,-999.0,72,0.00,,,-99.99,,2013-02-19 18:21:00,
2013-02-19 13:31:00,61.0,54.0,30.06,West,260,9.0,-999.0,77,0.00,,,-99.99,,2013-02-19 18:31:00,
2013-02-19 13:41:00,59.0,54.0,30.05,West,280,10.0,-999.0,82,0.00,,,-99.99,,2013-02-19 18:41:00,
2013-02-19 13:51:00,59.0,54.0,30.05,West,270,9.0,-999.0,82,0.00,,,-99.99,,2013-02-19 18:51:00,
2013-02-19 14:01:00,57.0,54.0,30.05,West,260,8.0,-999.0,87,0.00,,,-99.99,,2013-02-19 19:01:00,
2013-02-19 14:11:00,57.0,55.0,30.03,SW,220,10.0,16.0,93,0.00,,,-99.99,,2013-02-19 19:11:00,
2013-02-19 14:21:00,59.0,54.0,30.02,SW,220,13.0,23.0,82,0.00,,,-99.99,,2013-02-19 19:21:00,
2013-02-19 14:31:00,57.0,55.0,30.02,SW,220,15.0,25.0,93,0.00,,,-99.99,,2013-02-19 19:31:00,
2013-02-19 14:41:00,57.0,55.0,30.01,SW,230,14.0,25.0,93,0.00,,,-99.99,,2013-02-19 19:41:00,
2013-02-19 14:51:00,57.0,55.0,30.01,SW,230,15.0,24.0,93,0.00,,,-99.99,,2013-02-19 19:51:00,
2013-02-19 15:01:00,57.0,55.0,30.01,SW,230,15.0,24.0,93,0.00,,,-99.99,,2013-02-19 20:01:00,
2013-02-19 15:11:00,57.0,57.0,30.00,SW,230,12.0,22.0,100,0.00,,,-99.99,,2013-02-19 20:11:00,
2013-02-19 15:21:00,57.0,57.0,30.01,SW,230,13.0,23.0,100,0.00,,,-99.99,,2013-02-19 20:21:00,
2013-02-19 15:31:00,57.0,57.0,30.00,SW,230,15.0,23.0,100,0.00,,,-99.99,,2013-02-19 20:31:00,
2013-02-19 15:41:00,57.0,57.0,30.00,SW,230,14.0,21.0,100,0.00,,,-99.99,,2013-02-19 20:41:00,
2013-02-19 15:51:00,57.0,57.0,30.00,SW,220,17.0,22.0,100,0.00,,,-99.99,,2013-02-19 20:51:00,
2013-02-19 16:01:00,57.0,57.0,30.00,SW,220,17.0,22.0,100,0.00,,,-99.99,,2013-02-19 21:01:00,
2013-02-19 16:11:00,57.0,57.0,29.99,SW,220,14.0,22.0,100,0.00,,,-99.99,,2013-02-19 21:11:00,
2013-02-19 16:21:00,57.0,57.0,29.98,SW,230,13.0,18.0,100,0.00,,,-99.99,,2013-02-19 21:21:00,
2013-02-19 16:31:00,57.0,57.0,29.98,SW,220,16.0,23.0,100,0.00,,,-99.99,,2013-02-19 21:31:00,
2013-02-19 16:42:00,57.0,57.0,29.98,SW,230,16.0,23.0,100,0.00,,,-99.99,,2013-02-19 21:42:00,
2013-02-19 16:51:00,57.0,57.0,29.99,SW,230,14.0,20.0,100,0.00,,,-99.99,,2013-02-19 21:51:00,
2013-02-19 17:01:00,57.0,57.0,29.99,SW,230,14.0,20.0,100,0.00,,,-99.99,,2013-02-19 22:01:00,
2013-02-19 17:11:00,57.0,57.0,29.99,WSW,240,10.0,16.0,100,0.00,,,-99.99,,2013-02-19 22:11:00,
2013-02-19 17:21:00,57.0,57.0,29.99,WSW,240,12.0,16.0,100,0.00,,,-99.99,,2013-02-19 22:21:00,
2013-02-19 17:31:00,57.0,57.0,29.99,WSW,250,13.0,18.0,100,0.00,,,-99.99,,2013-02-19 22:31:00,
2013-02-19 17:41:00,57.0,57.0,29.99,WSW,240,13.0,18.0,100,0.00,,,-99.99,,2013-02-19 22:41:00,
2013-02-19 17:51:00,57.0,57.0,29.99,WSW,250,14.0,18.0,100,0.00,,,-99.99,,2013-02-19 22:51:00,
2013-02-19 18:01:00,57.0,57.0,29.99,WSW,250,14.0,18.0,100,0.00,,,-99.99,,2013-02-19 23:01:00,
2013-02-19 18:11:00,57.0,57.0,30.00,WSW,250,10.0,-999.0,100,0.00,,,-99.99,,2013-02-19 23:11:00,
2013-02-19 18:21:00,57.0,57.0,29.99,WSW,250,10.0,-999.0,100,0.00,,,-99.99,,2013-02-19 23:21:00,
2013-02-19 18:31:00,57.0,57.0,29.99,WSW,250,12.0,16.0,100,0.00,,,-99.99,,2013-02-19 23:31:00,
2013-02-19 18:41:00,57.0,57.0,30.00,WSW,250,10.0,-999.0,100,0.00,,,-99.99,,2013-02-19 23:41:00,
2013-02-19 18:51:00,55.0,55.0,30.00,WSW,250,12.0,-999.0,100,0.00,,,-99.99,,2013-02-19 23:51:00,
2013-02-19 19:01:00,55.0,55.0,30.00,WSW,250,12.0,-999.0,100,0.00,,,-99.99,,2013-02-20 00:01:00,
2013-02-19 19:11:00,57.0,57.0,30.00,West,260,13.0,-999.0,100,0.00,,,-99.99,,2013-02-20 00:11:00,
2013-02-19 19:21:00,55.0,55.0,30.01,West,270,9.0,-999.0,100,0.00,,,-99.99,,2013-02-20 00:21:00,
2013-02-19 19:31:00,55.0,55.0,30.01,West,260,15.0,-999.0,100,0.00,,,-99.99,,2013-02-20 00:31:00,
2013-02-19 19:41:00,55.0,55.0,30.01,West,280,8.0,12.0,100,0.00,,,-99.99,,2013-02-20 00:41:00,
2013-02-19 19:51:00,55.0,55.0,30.01,West,270,12.0,-999.0,100,0.00,,,-99.99,,2013-02-20 00:51:00,
2013-02-19 20:02:00,55.0,55.0,30.01,West,270,12.0,-999.0,100,0.00,,,-99.99,,2013-02-20 01:02:00,
2013-02-19 20:11:00,55.0,55.0,30.01,West,260,12.0,-999.0,100,0.00,,,-99.99,,2013-02-20 01:11:00,
2013-02-19 20:21:00,55.0,55.0,30.02,West,270,10.0,-999.0,100,0.00,,,-99.99,,2013-02-20 01:21:00,
2013-02-19 20:31:00,54.0,54.0,30.02,West,260,10.0,-999.0,100,0.00,,,-99.99,,2013-02-20 01:31:00,
2013-02-19 20:41:00,54.0,54.0,30.03,West,270,8.0,-999.0,100,0.00,,,-99.99,,2013-02-20 01:41:00,
2013-02-19 20:51:00,54.0,54.0,30.03,West,270,8.0,-999.0,100,0.00,,,-99.99,,2013-02-20 01:51:00,
2013-02-19 21:01:00,54.0,54.0,30.03,West,270,8.0,-999.0,100,0.00,,,-99.99,,2013-02-20 02:01:00,
2013-02-19 21:11:00,54.0,54.0,30.03,West,270,7.0,-999.0,100,0.00,,,-99.99,,2013-02-20 02:11:00,
2013-02-19 21:21:00,54.0,54.0,30.04,West,270,8.0,-999.0,100,0.00,,,-99.99,,2013-02-20 02:21:00,
2013-02-19 21:31:00,52.0,52.0,30.04,West,270,6.0,-999.0,100,0.00,,,-99.99,,2013-02-20 02:31:00,
2013-02-19 21:41:00,52.0,52.0,30.04,West,260,7.0,-999.0,100,0.00,,,-99.99,,2013-02-20 02:41:00,
2013-02-19 21:52:00,52.0,52.0,30.03,West,260,6.0,-999.0,100,0.00,,,-99.99,,2013-02-20 02:52:00,
2013-02-19 22:01:00,52.0,52.0,30.03,West,260,6.0,-999.0,100,0.00,,,-99.99,,2013-02-20 03:01:00,
2013-02-19 22:11:00,50.0,50.0,30.03,West,260,5.0,-999.0,100,0.00,,,-99.99,,2013-02-20 03:11:00,
2013-02-19 22:21:00,48.0,48.0,30.03,WSW,250,5.0,-999.0,100,0.00,,,-99.99,,2013-02-20 03:21:00,
2013-02-19 22:31:00,46.0,46.0,30.03,WSW,250,5.0,-999.0,100,0.00,,,-99.99,,2013-02-20 03:31:00,
2013-02-19 22:41:00,46.0,46.0,30.03,WSW,250,6.0,-999.0,100,0.00,,,-99.99,,2013-02-20 03:41:00,
2013-02-19 22:51:00,46.0,46.0,30.04,WSW,250,6.0,-999.0,100,0.00,,,-99.99,,2013-02-20 03:51:00,
2013-02-19 23:01:00,46.0,46.0,30.04,WSW,250,6.0,-999.0,100,0.00,,,-99.99,,2013-02-20 04:01:00,
2013-02-19 23:11:00,48.0,48.0,30.03,West,260,6.0,-999.0,100,0.00,,,-99.99,,2013-02-20 04:11:00,
2013-02-19 23:21:00,48.0,48.0,30.03,WSW,250,6.0,-999.0,100,0.00,,,-99.99,,2013-02-20 04:21:00,
2013-02-19 23:31:00,48.0,48.0,30.03,West,260,5.0,-999.0,100,0.00,,,-99.99,,2013-02-20 04:31:00,
2013-02-19 23:41:00,48.0,48.0,30.04,West,270,5.0,-999.0,100,0.00,,,-99.99,,2013-02-20 04:41:00,
2013-02-19 23:51:00,48.0,48.0,30.04,West,270,6.0,-999.0,100,0.00,,,-99.99,,2013-02-20 04:51:00,